Tracking 19283 objects as of 17-Nov-2018
HD Live streaming from Space Station
objects crossing your sky now

ISO

Track ISO now!
ISO is classified as:


NORAD ID: 23715
Int'l Code: 1995-062A
Perigee: 503.5 km
Apogee: 70,121.0 km
Inclination: 5.2 °
Period: 1,411.6 minutes
Semi major axis: 41683 km
RCS: 3.9811 m2 (large)
Launch date: November 17, 1995
Source: European Space Agency (ESA)
Launch site: FRENCH GUIANA (FRGUI)
aabbcc
Your satellite tracking list
Your tracking list is empty




NASA's NSSDC Master Catalog

Two Line Element Set (TLE):
1 23715U 95062A   18319.64995336 +.00000220 +00000-0 +17058-1 0  9993
2 23715 005.2390 334.5312 8350766 268.6816 006.9056 01.02014045085413
Source of the keplerian elements: AFSPC